Date String (YYYY-MM-DD hh:mm:ss) UTC,Instrument flags,Ambient pressure (hPa),Sample flow (lpm),Bypass flow (lpm),Sample temperature (°C),Ambient temperature (°C),ASC tube jacket temperature (°C),LED temperature (°C),Box temperature (°C),Sample RH (%),Span deviation,Mass concentration (μg/m³),Mass concentration (μg/m³),Mass concentration (μg/m³)
DateTimeUTC,F1_M11,P_M11,Q1_M11,Q2_M11,T1_M11,T2_M11,T3_M11,T4_M11,T5_M11,U1_M11,ZSPAN_M11,X0_M11,X2_M11,X1_M11
2021-11-02 12:00:00,,0831.7,4.99,0.00,23.1,22.3,00.0,32.1,24.9,20.6,0000.0,0009.59,0007.01,0006.66
2021-11-02 12:01:00,,0831.6,5.01,0.00,23.0,22.2,00.0,32.1,24.9,20.5,0000.0,0009.95,0007.11,0006.73
2021-11-02 12:02:00,,0831.6,4.99,0.00,23.0,22.2,00.0,32.1,24.9,20.6,-000.3,0009.90,0007.20,0006.81
2021-11-02 12:03:00,,0831.6,5.00,0.00,23.0,22.2,00.0,32.1,24.8,20.5,-001.6,0010.21,0007.30,0006.89
2021-11-02 12:04:00,,0831.6,5.01,0.00,23.0,22.2,00.0,32.1,24.8,20.5,-001.2,0010.37,0007.41,0006.98
2021-11-02 12:05:00,,0831.5,5.00,0.00,23.0,22.2,00.0,32.1,24.8,20.5,-001.3,0010.57,0007.50,0007.07
2021-11-02 12:06:00,,0831.5,5.00,0.00,23.0,22.2,00.0,32.1,24.8,20.5,-001.1,0010.73,0007.63,0007.17
2021-11-02 12:07:00,,0831.5,5.00,0.00,23.0,22.2,00.0,32.1,24.8,20.5,-001.1,0010.85,0007.73,0007.25
2021-11-02 12:08:00,,0831.6,5.00,0.00,23.0,22.2,00.0,32.1,24.8,20.5,-000.7,0011.02,0007.84,0007.34
2021-11-02 12:09:00,,0831.6,4.99,0.00,23.0,22.2,00.0,32.1,24.8,20.5,-000.3,0011.05,0007.91,0007.40
2021-11-02 12:10:00,,0831.5,5.00,0.00,23.0,22.2,00.0,32.0,24.8,20.6,0000.1,0011.28,0008.02,0007.44
2021-11-02 12:11:00,,0831.5,4.99,0.00,23.0,22.2,00.0,32.0,24.8,20.6,0000.7,0011.69,0008.08,0007.47
2021-11-02 12:12:00,,0831.5,5.01,0.00,23.0,22.2,00.0,32.0,24.8,20.6,0000.7,0011.64,0008.10,0007.49
2021-11-02 12:13:00,,0831.5,5.00,0.00,23.0,22.1,00.0,32.0,24.8,20.7,0000.7,0011.77,0008.15,0007.51
2021-11-02 12:14:00,,0831.6,4.99,0.00,23.0,22.1,00.0,32.0,24.8,22.3,0000.9,0011.56,0008.17,0007.54
2021-11-02 12:15:00,,0831.6,5.01,0.00,22.9,22.1,00.0,32.0,24.8,23.2,0001.0,0011.60,0008.19,0007.57
2021-11-02 12:16:00,,0831.5,4.99,0.00,22.9,22.1,00.0,32.0,24.8,21.5,0000.9,0011.65,0008.27,0007.60
2021-11-02 12:17:00,,0831.5,4.99,0.00,22.9,22.1,00.0,32.0,24.8,21.0,0000.9,0011.64,0008.29,0007.62
2021-11-02 12:18:00,,0831.5,5.01,0.00,22.9,22.1,00.0,32.0,24.8,20.9,0001.3,0011.95,0008.32,0007.62
2021-11-02 12:19:00,,0831.5,4.99,0.00,22.9,22.1,00.0,32.0,24.7,20.8,0000.9,0012.14,0008.34,0007.63
2021-11-02 12:20:00,,0831.5,5.01,0.00,22.9,22.1,00.0,32.0,24.7,20.8,0000.4,0012.46,0008.37,0007.64
2021-11-02 12:21:00,,0831.5,5.00,0.00,22.9,22.1,00.0,32.0,24.7,20.7,0000.6,0013.14,0008.37,0007.66
2021-11-02 12:22:00,,0831.5,4.99,0.00,22.9,22.1,00.0,32.0,24.7,20.7,0000.1,0012.95,0008.32,0007.66
2021-11-02 12:23:00,,0831.5,5.00,0.00,22.9,22.1,00.0,32.0,24.7,20.7,-000.1,0012.72,0008.33,0007.69
2021-11-02 12:24:00,,0831.5,5.01,0.00,22.9,22.1,00.0,32.0,24.7,20.7,0000.3,0012.76,0008.37,0007.70
2021-11-02 12:25:00,,0831.5,5.00,0.00,22.9,22.2,00.0,32.0,24.7,20.7,0000.5,0012.77,0008.37,0007.70
2021-11-02 12:26:00,,0831.5,5.00,0.00,22.9,22.1,00.0,32.0,24.7,20.7,0000.7,0012.76,0008.39,0007.71
2021-11-02 12:27:00,,0831.5,5.01,0.00,22.9,22.1,00.0,32.0,24.7,20.7,0000.9,0012.78,0008.41,0007.72
2021-11-02 12:28:00,,0831.5,4.99,0.00,22.9,22.1,00.0,32.0,24.7,20.7,0001.0,0012.89,0008.43,0007.72
2021-11-02 12:29:00,,0831.5,5.01,0.00,22.9,22.1,00.0,32.0,24.7,20.7,0000.5,0012.96,0008.48,0007.74
2021-11-02 12:30:00,,0831.5,4.99,0.00,22.9,22.1,00.0,32.0,24.7,20.7,0000.2,0013.53,0008.52,0007.77
2021-11-02 12:31:00,,0831.4,5.02,0.00,22.9,22.1,00.0,32.0,24.7,20.7,0000.3,0013.55,0008.56,0007.80
2021-11-02 12:32:00,,0831.5,4.99,0.00,22.9,22.1,00.0,32.0,24.7,20.7,0000.0,0013.50,0008.61,0007.83
2021-11-02 12:33:00,,0831.4,5.01,0.00,22.9,22.1,00.0,32.0,24.7,20.6,0000.1,0013.92,0008.72,0007.89
2021-11-02 12:34:00,,0831.4,5.01,0.00,22.9,22.1,00.0,32.0,24.7,20.6,0000.2,0014.45,0008.80,0007.94
2021-11-02 12:35:00,,0831.4,5.01,0.00,22.9,22.1,00.0,31.9,24.7,20.6,0000.0,0014.47,0008.82,0008.00
2021-11-02 12:36:00,,0831.4,5.00,0.00,22.9,22.1,00.0,31.9,24.7,20.6,-000.3,0014.69,0008.84,0008.02
2021-11-02 12:37:00,,0831.4,4.99,0.00,22.9,22.1,00.0,31.9,24.7,20.6,-000.5,0015.24,0008.88,0008.06
2021-11-02 12:38:00,,0831.3,5.01,0.00,22.9,22.1,00.0,31.9,24.7,20.6,-000.8,0015.29,0008.91,0008.10
2021-11-02 12:39:00,,0831.3,5.00,0.00,22.9,22.1,00.0,31.9,24.7,20.6,-001.0,0015.35,0008.98,0008.14
2021-11-02 12:40:00,,0831.3,5.01,0.00,22.9,22.1,00.0,31.9,24.7,20.6,-000.6,0015.25,0008.99,0008.17
2021-11-02 12:41:00,,0831.2,5.00,0.00,22.9,22.1,00.0,31.9,24.7,20.6,-000.3,0014.76,0009.00,0008.20
2021-11-02 12:42:00,,0831.2,5.01,0.00,22.9,22.1,00.0,31.9,24.7,20.7,-000.3,0014.46,0009.01,0008.23
2021-11-02 12:43:00,,0831.2,4.99,0.00,22.9,22.1,00.0,31.9,24.7,20.7,-000.5,0013.71,0009.01,0008.25
2021-11-02 12:44:00,,0831.2,5.01,0.00,22.9,22.1,00.0,31.9,24.7,20.7,-000.5,0014.23,0009.04,0008.25
2021-11-02 12:45:00,,0831.3,5.00,0.00,22.9,22.1,00.0,31.9,24.7,20.7,-000.5,0014.29,0008.99,0008.25
2021-11-02 12:46:00,,0831.3,5.00,0.00,22.9,22.1,00.0,31.9,24.7,20.6,-000.5,0014.06,0008.97,0008.26
2021-11-02 12:47:00,,0831.4,4.99,0.00,22.9,22.1,00.0,31.9,24.7,20.6,-000.0,0014.32,0009.02,0008.29
2021-11-02 12:48:00,,0831.3,5.01,0.00,22.9,22.1,00.0,31.9,24.7,20.6,0000.2,0014.14,0009.08,0008.31
2021-11-02 12:49:00,,0831.3,4.99,0.00,22.9,22.1,00.0,31.9,24.7,20.6,0000.2,0014.19,0009.12,0008.33
2021-11-02 12:50:00,,0831.4,5.01,0.00,22.9,22.2,00.0,31.9,24.7,20.6,0000.6,0014.31,0009.17,0008.35
2021-11-02 12:51:00,,0831.3,5.00,0.00,22.9,22.2,00.0,31.9,24.7,20.6,0000.3,0014.29,0009.18,0008.38
2021-11-02 12:52:00,,0831.3,5.00,0.00,22.9,22.1,00.0,31.9,24.7,20.7,0000.2,0014.87,0009.23,0008.40
2021-11-02 12:53:00,,0831.3,5.00,0.00,22.9,22.1,00.0,31.9,24.7,20.6,0000.4,0015.07,0009.30,0008.44
2021-11-02 12:54:00,,0831.3,5.01,0.00,22.9,22.1,00.0,31.9,24.7,20.6,0001.0,0015.09,0009.35,0008.48
2021-11-02 12:55:00,,0831.4,4.99,0.00,22.9,22.1,00.0,31.9,24.7,20.6,0000.7,0014.30,0009.33,0008.51
2021-11-02 12:56:00,,0831.3,4.99,0.00,22.9,22.1,00.0,31.9,24.7,20.6,0000.2,0013.68,0009.37,0008.51
2021-11-02 12:57:00,,0831.2,5.00,0.00,22.9,22.1,00.0,31.9,24.7,20.7,0000.2,0013.77,0009.39,0008.50
2021-11-02 12:58:00,,0831.2,5.01,0.00,22.9,22.1,00.0,31.9,24.7,20.7,0000.3,0013.76,0009.37,0008.49
2021-11-02 12:59:00,,0831.2,4.99,0.00,22.9,22.1,00.0,31.9,24.7,20.7,-000.1,0013.34,0009.30,0008.47
